Dryden, TX

4:50 AM CDT on July 24, 2017 (GMT -0500)
Dryden

Weather History for K6R6 - April, 2013

Change the Weather History Date:

Saturday, April 20, 2013

  Actual Average (KFST) Record (KFST)
Temperature  
Mean Temperature 65 °F -  
Max Temperature 82 °F 81 °F 102 °F (1998)
Min Temperature 48 °F 52 °F 46 °F (2003)
Growing Degree Days 15 (Base 50)    
Moisture  
Dew Point 23 °F    
Average Humidity 22    
Maximum Humidity 36    
Minimum Humidity 11    
Precipitation  
Precipitation 0.00 in - - ()
Sea Level Pressure  
Sea Level Pressure 29.91 in    
Wind  
Wind Speed 9 mph (East)    
Max Wind Speed 22 mph    
Max Gust Speed 29 mph    
Averages and records for this station are not official NWS values.
T = Trace of Precipitation, MM = Missing Value Source: NWS Daily Summary

Daily Weather History Graph

Daily Weather History Graph

Search for Another Location

Airport or City:

Trip Planner

Search our weather history database for the weather conditions in past years. The results will help you decide how hot, cold, wet, or windy it might be!

Date:

Astronomy

Apr. 20, 2013 Rise Set
Actual Time 7:16 AM CDT 8:19 PM CDT
Civil Twilight 6:51 AM CDT 8:44 PM CDT
Nautical Twilight 6:22 AM CDT 9:13 PM CDT
Astronomical Twilight 5:51 AM CDT 9:44 PM CDT
Moon 3:26 PM CDT (4/20) 3:43 AM CDT (4/20)
Length of Visible Light 13h 52m
Length of Day
13h 03m
Waxing Gibbous, 71% of the Moon is Illuminated
Apr 20
Waxing Gibbous
Apr 25
Full
May 2
Last Quarter
May 9
New
May 17
First Quarter

Hourly Weather History & Observations

Time (CDT) Temp. Dew Point Humidity Pressure Visibility Wind Dir Wind Speed Gust Speed Precip Events Conditions
12:53 AM 54.0 °F 21.0 °F 28% 30.05 in - ENE 4.6 mph - N/A   Unknown
1:53 AM 52.0 °F 21.0 °F 30% 30.03 in - ENE 3.5 mph - N/A   Unknown
2:53 AM 50.0 °F 19.9 °F 31% 30.00 in - NNE 5.8 mph - N/A   Unknown
3:53 AM 48.9 °F 19.9 °F 32% 29.99 in - NNE 5.8 mph - N/A   Unknown
4:53 AM 48.9 °F 19.9 °F 32% 29.98 in - North 6.9 mph - N/A   Unknown
5:53 AM 50.0 °F 19.9 °F 31% 29.99 in - North 6.9 mph - N/A   Unknown
6:53 AM 48.0 °F 21.0 °F 34% 30.00 in - NE 6.9 mph - N/A   Unknown
7:53 AM 48.0 °F 21.9 °F 36% 30.02 in - NE 6.9 mph - N/A   Unknown
8:53 AM 54.0 °F 24.1 °F 31% 30.03 in - East 8.1 mph - N/A   Unknown
9:53 AM 59.0 °F 25.0 °F 27% 30.02 in - ESE 8.1 mph - N/A   Unknown
10:53 AM 64.0 °F 24.1 °F 22% 30.01 in - ESE 10.4 mph - N/A   Unknown
11:53 AM 69.1 °F 24.1 °F 18% 29.99 in - SE 12.7 mph 18.4 mph N/A   Unknown
12:53 PM 73.9 °F 24.1 °F 16% 29.95 in - SE 9.2 mph 16.1 mph N/A   Unknown
1:53 PM 78.1 °F 23.0 °F 13% 29.89 in - SE 15.0 mph 20.7 mph N/A   Unknown
2:53 PM 80.1 °F 23.0 °F 12% 29.86 in - East 11.5 mph 18.4 mph N/A   Unknown
3:53 PM 82.0 °F 23.0 °F 11% 29.82 in - ESE 13.8 mph 21.9 mph N/A   Unknown
4:53 PM 82.9 °F 23.0 °F 11% 29.78 in - ESE 13.8 mph 23.0 mph N/A   Unknown
5:53 PM 81.0 °F 23.0 °F 12% 29.76 in - ESE 21.9 mph 27.6 mph N/A   Unknown
6:53 PM 79.0 °F 24.1 °F 13% 29.77 in - East 21.9 mph 28.8 mph N/A   Unknown
7:53 PM 75.0 °F 24.1 °F 15% 29.75 in - East 17.3 mph 28.8 mph N/A   Unknown
8:53 PM 72.0 °F 23.0 °F 16% 29.78 in - ESE 16.1 mph 25.3 mph N/A   Unknown
9:53 PM 70.0 °F 24.1 °F 18% 29.79 in - ESE 16.1 mph 27.6 mph N/A   Unknown
10:53 PM 69.1 °F 26.1 °F 20% 29.81 in - ESE 15.0 mph 23.0 mph N/A   Unknown
11:53 PM 64.9 °F 28.0 °F 25% 29.86 in - NNE 8.1 mph - N/A   Unknown